Date String (YYYY-MM-DD hh:mm:ss) UTC,Instrument flags,Ambient pressure (hPa),Sample flow (lpm),Bypass flow (lpm),Sample temperature (°C),Ambient temperature (°C),ASC tube jacket temperature (°C),LED temperature (°C),Box temperature (°C),Sample RH (%),Span deviation,Mass concentration (μg/m³),Mass concentration (μg/m³),Mass concentration (μg/m³)
DateTimeUTC,F1_M11,P_M11,Q1_M11,Q2_M11,T1_M11,T2_M11,T3_M11,T4_M11,T5_M11,U1_M11,ZSPAN_M11,X0_M11,X2_M11,X1_M11
2023-01-31 21:00:00,,0823.3,5.00,0.00,23.9,22.6,00.0,32.6,25.6,06.3,0001.2,0012.45,0007.61,0007.29
2023-01-31 21:01:00,,0823.4,5.00,0.00,23.9,22.6,00.0,32.6,25.6,06.4,0001.1,0012.26,0007.59,0007.26
2023-01-31 21:02:00,,0823.3,5.00,0.00,23.9,22.7,00.0,32.6,25.6,06.4,0000.5,0012.01,0007.61,0007.25
2023-01-31 21:03:00,,0823.3,5.01,0.00,23.9,22.7,00.0,32.6,25.6,06.4,0000.8,0012.01,0007.62,0007.26
2023-01-31 21:04:00,,0823.4,4.98,0.00,23.9,22.7,00.0,32.7,25.6,06.3,0000.6,0012.07,0007.64,0007.26
2023-01-31 21:05:00,,0823.3,4.99,0.00,23.9,22.7,00.0,32.7,25.6,06.3,0000.8,0011.71,0007.66,0007.29
2023-01-31 21:06:00,,0823.3,4.98,0.00,23.9,22.7,00.0,32.7,25.6,06.3,0000.9,0011.47,0007.72,0007.31
2023-01-31 21:07:00,,0823.4,4.98,0.00,23.9,22.7,00.0,32.7,25.6,06.3,0001.3,0011.56,0007.73,0007.32
2023-01-31 21:08:00,,0823.4,5.04,0.00,23.9,22.7,00.0,32.7,25.6,06.2,0000.9,0012.12,0007.76,0007.31
2023-01-31 21:09:00,,0823.4,5.00,0.00,23.9,22.7,00.0,32.7,25.7,06.1,0001.0,0012.52,0007.73,0007.28
2023-01-31 21:10:00,,0823.4,5.00,0.00,24.0,22.7,00.0,32.7,25.7,06.0,0001.5,0012.38,0007.65,0007.22
2023-01-31 21:11:00,,0823.4,5.01,0.00,24.0,22.7,00.0,32.7,25.7,06.1,0002.2,0012.31,0007.60,0007.16
2023-01-31 21:12:00,,0823.3,5.00,0.00,24.0,22.7,00.0,32.7,25.7,06.0,0002.1,0012.21,0007.51,0007.09
2023-01-31 21:13:00,,0823.3,4.98,0.00,24.0,22.8,00.0,32.7,25.7,06.1,0002.2,0012.07,0007.43,0007.04
2023-01-31 21:14:00,,0823.3,4.97,0.00,24.0,22.8,00.0,32.7,25.7,06.1,0001.4,0011.97,0007.37,0007.00
2023-01-31 21:15:00,,0823.3,5.00,0.00,24.0,22.8,00.0,32.8,25.7,06.2,0000.9,0012.61,0007.37,0006.99
2023-01-31 21:16:00,,0823.3,5.03,0.00,24.0,22.8,00.0,32.8,25.7,06.2,0000.3,0013.37,0007.39,0006.97
2023-01-31 21:17:00,,0823.2,4.99,0.00,24.0,22.8,00.0,32.8,25.7,06.2,0000.1,0013.35,0007.36,0006.95
2023-01-31 21:18:00,,0823.2,4.99,0.00,24.0,22.8,00.0,32.8,25.8,06.3,0000.2,0013.41,0007.39,0006.95
2023-01-31 21:19:00,,0823.3,5.00,0.00,24.0,22.8,00.0,32.8,25.9,06.4,-000.2,0013.00,0007.41,0006.97
2023-01-31 21:20:00,,0823.3,4.99,0.00,24.1,22.8,00.0,32.8,25.9,06.5,0000.0,0012.53,0007.45,0007.03
2023-01-31 21:21:00,,0823.3,5.00,0.00,24.1,22.8,00.0,32.8,25.9,06.5,-000.1,0012.68,0007.55,0007.12
2023-01-31 21:22:00,,0823.3,5.01,0.00,24.1,22.8,00.0,32.8,25.9,06.4,-000.2,0012.82,0007.63,0007.20
2023-01-31 21:23:00,,0823.3,5.00,0.00,24.1,22.8,00.0,32.8,25.9,06.3,-000.5,0012.95,0007.74,0007.30
2023-01-31 21:24:00,,0823.3,4.97,0.00,24.1,22.9,00.0,32.8,25.9,06.4,-000.4,0013.75,0007.86,0007.38
2023-01-31 21:25:00,,0823.3,5.01,0.00,24.1,22.9,00.0,32.9,25.9,06.3,-000.4,0014.14,0007.94,0007.44
2023-01-31 21:26:00,,0823.2,5.00,0.00,24.1,22.9,00.0,32.9,26.0,06.3,-000.4,0013.72,0007.97,0007.49
2023-01-31 21:27:00,,0823.2,4.95,0.00,24.1,22.9,00.0,32.9,26.0,06.2,-000.3,0012.86,0008.00,0007.54
2023-01-31 21:28:00,,0823.2,4.99,0.00,24.1,22.9,00.0,32.9,26.0,06.3,-000.4,0013.17,0008.03,0007.59
2023-01-31 21:29:00,,0823.3,5.01,0.00,24.2,22.9,00.0,32.9,26.0,06.5,-000.8,0013.37,0008.11,0007.65
2023-01-31 21:30:00,,0823.3,4.98,0.00,24.2,22.9,00.0,32.9,26.0,06.3,-000.6,0013.39,0008.16,0007.72
2023-01-31 21:31:00,,0823.3,5.00,0.00,24.2,22.9,00.0,32.9,26.0,06.4,-000.4,0013.50,0008.22,0007.77
2023-01-31 21:32:00,,0823.4,5.00,0.00,24.2,22.9,00.0,32.9,26.0,06.3,-000.1,0013.71,0008.28,0007.81
2023-01-31 21:33:00,,0823.4,5.00,0.00,24.2,22.9,00.0,32.9,26.0,06.2,-000.3,0014.17,0008.35,0007.86
2023-01-31 21:34:00,,0823.4,5.00,0.00,24.2,22.9,00.0,32.9,26.1,06.2,0000.3,0014.29,0008.42,0007.91
2023-01-31 21:35:00,,0823.4,4.98,0.00,24.2,22.9,00.0,32.9,26.1,06.3,0000.7,0013.79,0008.43,0007.95
2023-01-31 21:36:00,,0823.4,5.01,0.00,24.2,22.9,00.0,33.0,26.0,06.4,0001.4,0013.47,0008.47,0008.00
2023-01-31 21:37:00,,0823.4,5.00,0.00,24.2,22.9,00.0,33.0,26.0,06.4,0001.5,0013.72,0008.53,0008.04
2023-01-31 21:38:00,,0823.4,5.01,0.00,24.2,22.9,00.0,33.0,26.0,06.4,0001.6,0013.84,0008.58,0008.08
2023-01-31 21:39:00,,0823.3,5.00,0.00,24.2,22.9,00.0,33.0,26.0,06.4,0002.1,0013.61,0008.63,0008.14
2023-01-31 21:40:00,,0823.4,5.01,0.00,24.2,22.9,00.0,33.0,26.0,06.4,0002.3,0013.96,0008.65,0008.19
2023-01-31 21:41:00,,0823.4,5.01,0.00,24.2,22.9,00.0,33.0,26.0,06.5,0001.7,0014.62,0008.70,0008.23
2023-01-31 21:42:00,,0823.4,5.01,0.00,24.2,22.9,00.0,33.0,26.0,06.5,0001.8,0014.68,0008.74,0008.26
2023-01-31 21:43:00,,0823.3,5.00,0.00,24.2,22.9,00.0,33.0,26.0,06.5,0001.3,0014.64,0008.76,0008.28
2023-01-31 21:44:00,,0823.3,4.99,0.00,24.2,22.9,00.0,33.0,26.0,06.4,0001.4,0014.37,0008.80,0008.31
2023-01-31 21:45:00,,0823.3,4.98,0.00,24.2,22.9,00.0,33.0,26.0,06.5,0000.7,0014.38,0008.84,0008.35
2023-01-31 21:46:00,,0823.4,5.01,0.00,24.2,22.9,00.0,33.0,26.0,06.4,0000.2,0014.78,0008.90,0008.38
2023-01-31 21:47:00,,0823.3,4.99,0.00,24.2,22.9,00.0,33.0,26.0,06.4,0000.1,0014.81,0008.93,0008.41
2023-01-31 21:48:00,,0823.4,4.99,0.00,24.3,22.9,00.0,33.0,26.0,06.4,0000.4,0014.70,0008.94,0008.42
2023-01-31 21:49:00,,0823.4,4.99,0.00,24.3,22.9,00.0,33.0,26.1,06.4,0000.6,0014.81,0008.94,0008.42
2023-01-31 21:50:00,,0823.4,5.00,0.00,24.3,22.9,00.0,33.0,26.1,06.4,0000.8,0015.61,0008.98,0008.42
2023-01-31 21:51:00,,0823.5,4.98,0.00,24.3,22.9,00.0,33.0,26.1,06.4,0000.7,0015.18,0009.00,0008.41
2023-01-31 21:52:00,,0823.5,4.99,0.00,24.3,22.9,00.0,33.0,26.0,06.5,0001.2,0014.87,0009.06,0008.41
2023-01-31 21:53:00,,0823.5,5.00,0.00,24.3,22.9,00.0,33.0,26.0,06.4,0000.4,0015.02,0009.11,0008.43
2023-01-31 21:54:00,,0823.5,5.01,0.00,24.3,22.9,00.0,33.1,26.0,06.2,-000.1,0015.67,0009.13,0008.44
2023-01-31 21:55:00,,0823.4,5.02,0.00,24.3,22.9,00.0,33.1,26.0,06.1,-000.4,0015.94,0009.07,0008.41
2023-01-31 21:56:00,,0823.5,4.98,0.00,24.3,22.9,00.0,33.1,26.0,06.1,-000.3,0016.27,0009.05,0008.35
2023-01-31 21:57:00,,0823.4,5.01,0.00,24.3,22.9,00.0,33.1,26.1,06.2,-000.2,0016.37,0009.01,0008.32
2023-01-31 21:58:00,,0823.4,5.00,0.00,24.3,22.9,00.0,33.1,26.0,06.4,-000.6,0017.50,0009.02,0008.30
2023-01-31 21:59:00,,0823.5,4.99,0.00,24.3,22.9,00.0,33.1,26.0,06.5,-000.8,0017.68,0009.03,0008.29
